Location: *
(50.5492°N, 7.7469°E)
Time: 23:56:13
(UTC+00:00)

STARLINK-38 - Pass Details

Date: 21 October 2019
Orbit: 548 x 551 km, 53.0° (Epoch: 16 November)

Event Time Altitude Azimuth Distance (km) Brightness Sun altitude
Rises 18:37:23 0° 284° (WNW) 2,720 8.7 -21.6°
Reaches altitude 10° 18:39:38 10° 287° (WNW) 1,826 7.4 -21.9°
Maximum altitude 18:43:46 68° 10° (N) 596 3.7 -22.6°
Enters shadow 18:43:50 68° 18° (NNE) 596 3.6 -22.6°
